QPF
0.00 0.00 0.00 0.00 0.00 0.00 0.00 0.00 0.00 0.00 0.00 0.00 0.00 0.00 0.00 0.00 0.00 0.00 0.00 0.00 0.00 0.00 0.00 0.00 0.00 0.00 0.00 0.00 0.00 0.00 0.00 0.00 0.00 0.00 0.00 0.00 0.00 0.00 0.00 0.00 0.00 0.00 0.00 0.00 0.00 0.00 0.00
0.00 0.00 0.00 0.00 0.00 0.00 0.00 0.00 0.00 0.00 0.00 0.00 0.00 0.00 0.00 0.00 0.00 0.00 0.00 0.00 0.00 0.00 0.00 0.00 0.00 0.00 0.00 0.00 0.00 0.00 0.00 0.00 0.00 0.00 0.00 0.00 0.00 0.00 0.00 0.00 0.00 0.00 0.00 0.00 0.00 0.00 0.00
0.00 0.00 0.00 0.00 0.00 0.00 0.00 0.00 0.00 0.00 0.00 0.00 0.00 0.00 0.00 0.00 0.00 0.00 0.00 0.00 0.00 0.00 0.00 0.00 0.00 0.00 0.00 0.00 0.00 0.00 0.00 0.00 0.00 0.00 0.00 0.00 0.00 0.00 0.00 0.00 0.00 0.00 0.00 0.00 0.00 0.00 0.00
0.00 0.00 0.00 0.00 0.00 0.00 0.00 0.00 0.00 0.00 0.00 0.00 0.00 0.00 0.00 0.00 0.00 0.00 0.00 0.00 0.00 0.00 0.00 0.00 0.00 0.00 0.00 0.00 0.00 0.00 0.00 0.00 0.00 0.00 0.00 0.00 0.00 0.00 0.00 0.00 0.00 0.00 0.00 0.00 0.00 0.00 0.00
0.00 0.00 0.00 0.00 0.00 0.00 0.00 0.00 0.00 0.00 0.00 0.00 0.00 0.00 0.00 0.00 0.00 0.00 0.00 0.00 0.00 0.00 0.00 0.00 0.00 0.00 0.00 0.00 0.00 0.00 0.00 0.00 0.00 0.00 0.00 0.00 0.00 0.00 0.00 0.00 0.00 0.00 0.00 0.00 0.00 0.00 0.00
0.00 0.00 0.00 0.00 0.00 0.00 0.00 0.00 0.00 0.00 0.00 0.00 0.00 0.00 0.00 0.00 0.00 0.00 0.00 0.00 0.00 0.00 0.00 0.00 0.00 0.00 0.00 0.00 0.00 0.00 0.00 0.00 0.00 0.00 0.00 0.00 0.00 0.00 0.00 0.00 0.00 0.00 0.00 0.00 0.00 0.00 0.00
0.00 0.00 0.00 0.00 0.00 0.00 0.00 0.00 0.00 0.00 0.00 0.00 0.00 0.00 0.00 0.00 0.00 0.00 0.00 0.00 0.00 0.00 0.00 0.00 0.00 0.00 0.00 0.00 0.00 0.00 0.00 0.00 0.00 0.00 0.00 0.00 0.00 0.00 0.00 0.00 0.00 0.00 0.00 0.00 0.00 0.00 0.00
0.00 0.00 0.00 0.00 0.00 0.00 0.00 0.00 0.00 0.00 0.00 0.00 0.00 0.00 0.00 0.00 0.00 0.00 0.00 0.00 0.00 0.00 0.00 0.00 0.00 0.00 0.00 0.00 0.00 0.00 0.00 0.00 0.00 0.00 0.00 0.00 0.00 0.00 0.00 0.00 0.00 0.00 0.00 0.00 0.00 0.00 0.00
0.00 0.00 0.00 0.00 0.00 0.00 0.00 0.00 0.00 0.00 0.00 0.00 0.00 0.00 0.00 0.00 0.00 0.00 0.00 0.00 0.00 0.00 0.00 0.00 0.00 0.00 0.00 0.00 0.00 0.00 0.00 0.00 0.00 0.00 0.00 0.00 0.00 0.00 0.00 0.00 0.00 0.00 0.00 0.00 0.00 0.00 0.00
0.00 0.00 0.00 0.00 0.00 0.00 0.00 0.00 0.00 0.00 0.00 0.00 0.00 0.00 0.00 0.00 0.00 0.00 0.00 0.00 0.00 0.00 0.00 0.00 0.00 0.00 0.00 0.00 0.00 0.00 0.00 0.00 0.00 0.00 0.00 0.00 0.00 0.00 0.00 0.00 0.00 0.00 0.00 0.00 0.00 0.00 0.00
0.00 0.00 0.00 0.00 0.00 0.00 0.00 0.00 0.00 0.00 0.00 0.00 0.00 0.00 0.00 0.00 0.00 0.00 0.00 0.00 0.00 0.00 0.00 0.00 0.00 0.00 0.00 0.00 0.00 0.00 0.00 0.00 0.00 0.00 0.00 0.00 0.00 0.00 0.00 0.00 0.00 0.00 0.00 0.00 0.00 0.00 0.00
0.03 0.03 0.01 0.00 0.00 0.00 0.00 0.00 0.00 0.00 0.00 0.00 0.00 0.00 0.00 0.00 0.00 0.00 0.00 0.00 0.00 0.00 0.00 0.00 0.00 0.00 0.00 0.00 0.00 0.00 0.00 0.00 0.00 0.00 0.00 0.00 0.00 0.00 0.00 0.00 0.00 0.00 0.00 0.00 0.00 0.00 0.00
0.08 0.06 0.05 0.02 0.00 0.00 0.00 0.00 0.00 0.00 0.00 0.00 0.00 0.00 0.00 0.00 0.00 0.00 0.00 0.00 0.00 0.00 0.00 0.00 0.00 0.00 0.00 0.00 0.00 0.00 0.00 0.00 0.00 0.00 0.00 0.00 0.00 0.00 0.00 0.00 0.00 0.00 0.00 0.00 0.00 0.00 0.00
0.17 0.12 0.06 0.05 0.03 0.01 0.00 0.00 0.00 0.00 0.00 0.00 0.00 0.00 0.00 0.00 0.00 0.00 0.00 0.00 0.00 0.00 0.00 0.00 0.00 0.00 0.00 0.00 0.00 0.00 0.00 0.00 0.00 0.00 0.00 0.00 0.00 0.00 0.00 0.00 0.00 0.00 0.00 0.00 0.00 0.00 0.00
0.12 0.11 0.11 0.09 0.06 0.04 0.00 0.00 0.00 0.00 0.00 0.00 0.00 0.00 0.00 0.00 0.00 0.00 0.00 0.00 0.00 0.00 0.00 0.00 0.00 0.00 0.00 0.00 0.00 0.00 0.00 0.00 0.00 0.00 0.00 0.00 0.00 0.00 0.00 0.00 0.00 0.00 0.00 0.00 0.00 0.00 0.00
0.06 0.10 0.10 0.10 0.07 0.04 0.02 0.00 0.00 0.00 0.00 0.00 0.00 0.00 0.00 0.00 0.00 0.00 0.00 0.00 0.00 0.00 0.00 0.00 0.00 0.00 0.00 0.00 0.00 0.00 0.00 0.00 0.00 0.00 0.00 0.00 0.00 0.00 0.00 0.00 0.00 0.00 0.00 0.00 0.00 0.00 0.00
0.06 0.05 0.08 0.13 0.15 0.12 0.09 0.04 0.01 0.01 0.01 0.00 0.00 0.02 0.00 0.00 0.00 0.00 0.00 0.00 0.00 0.00 0.00 0.00 0.00 0.00 0.00 0.00 0.00 0.00 0.00 0.00 0.00 0.00 0.00 0.00 0.00 0.00 0.00 0.00 0.00 0.00 0.00 0.00 0.00 0.00 0.00
0.01 0.03 0.04 0.07 0.16 0.17 0.16 0.16 0.11 0.06 0.03 0.03 0.05 0.06 0.00 0.00 0.00 0.00 0.00 0.00 0.00 0.00 0.00 0.00 0.00 0.00 0.00 0.00 0.00 0.00 0.00 0.00 0.00 0.00 0.00 0.00 0.00 0.00 0.00 0.00 0.00 0.00 0.00 0.00 0.00 0.00 0.00
0.00 0.02 0.03 0.04 0.10 0.16 0.24 0.29 0.17 0.07 0.05 0.07 0.13 0.11 0.02 0.00 0.00 0.00 0.00 0.00 0.00 0.00 0.00 0.00 0.00 0.00 0.00 0.00 0.00 0.00 0.00 0.00 0.00 0.00 0.00 0.00 0.00 0.00 0.00 0.00 0.00 0.00 0.00 0.00 0.00 0.00 0.00
0.00 0.00 0.03 0.07 0.10 0.18 0.31 0.46 0.21 0.12 0.14 0.22 0.24 0.19 0.09 0.03 0.00 0.00 0.00 0.00 0.00 0.00 0.00 0.00 0.00 0.00 0.00 0.00 0.00 0.00 0.00 0.00 0.00 0.00 0.00 0.00 0.00 0.00 0.00 0.00 0.00 0.00 0.00 0.00 0.00 0.00 0.00
0.00 0.00 0.01 0.05 0.19 0.22 0.36 0.50 0.25 0.20 0.34 0.35 0.26 0.11 0.03 0.04 0.01 0.00 0.00 0.00 0.00 0.00 0.00 0.00 0.00 0.00 0.00 0.00 0.00 0.00 0.00 0.00 0.00 0.00 0.00 0.00 0.00 0.00 0.00 0.00 0.00 0.00 0.00 0.00 0.00 0.00 0.00
0.00 0.00 0.01 0.06 0.20 0.34 0.54 0.52 0.31 0.40 0.50 0.46 0.24 0.10 0.06 0.04 0.02 0.01 0.00 0.00 0.00 0.00 0.00 0.00 0.00 0.00 0.00 0.00 0.00 0.00 0.00 0.00 0.00 0.00 0.00 0.00 0.00 0.00 0.00 0.00 0.00 0.00 0.00 0.00 0.00 0.00 0.00
0.04 0.01 0.01 0.04 0.14 0.26 0.41 0.43 0.43 0.50 0.48 0.38 0.18 0.06 0.10 0.10 0.04 0.00 0.00 0.00 0.00 0.00 0.00 0.00 0.00 0.00 0.00 0.00 0.00 0.00 0.00 0.00 0.00 0.00 0.00 0.00 0.00 0.00 0.00 0.00 0.00 0.00 0.00 0.00 0.00 0.00 0.00
0.05 0.02 0.01 0.02 0.04 0.11 0.20 0.19 0.27 0.38 0.31 0.20 0.09 0.05 0.03 0.02 0.00 0.00 0.00 0.00 0.00 0.00 0.00 0.00 0.00 0.00 0.00 0.00 0.00 0.00 0.00 0.00 0.00 0.00 0.00 0.00 0.00 0.01 0.00 0.00 0.00 0.00 0.00 0.00 0.00 0.00 0.00
0.02 0.01 0.00 0.00 0.00 0.00 0.03 0.07 0.11 0.21 0.17 0.11 0.11 0.03 0.04 0.02 0.00 0.00 0.00 0.00 0.00 0.00 0.00 0.00 0.00 0.00 0.00 0.00 0.00 0.00 0.00 0.00 0.00 0.00 0.01 0.01 0.01 0.01 0.00 0.00 0.00 0.00 0.00 0.00 0.00 0.00 0.00
0.00 0.00 0.00 0.00 0.00 0.00 0.00 0.00 0.01 0.05 0.05 0.03 0.03 0.02 0.02 0.03 0.01 0.00 0.00 0.00 0.00 0.00 0.00 0.00 0.00 0.00 0.00 0.00 0.00 0.00 0.00 0.00 0.00 0.00 0.00 0.01 0.01 0.01 0.00 0.00 0.00 0.00 0.00 0.00 0.00 0.00 0.00
0.00 0.00 0.00 0.00 0.00 0.00 0.01 0.01 0.01 0.03 0.02 0.02 0.02 0.00 0.00 0.00 0.00 0.00 0.00 0.00 0.00 0.00 0.00 0.00 0.00 0.00 0.00 0.00 0.00 0.00 0.00 0.00 0.00 0.00 0.00 0.00 0.00 0.01 0.01 0.01 0.00 0.00 0.00 0.00 0.00 0.00 0.00
0.00 0.00 0.00 0.00 0.00 0.00 0.00 0.02 0.02 0.02 0.01 0.01 0.01 0.00 0.00 0.00 0.00 0.00 0.00 0.00 0.00 0.00 0.00 0.00 0.00 0.00 0.00 0.00 0.00 0.00 0.00 0.00 0.00 0.00 0.00 0.00 0.00 0.00 0.01 0.02 0.00 0.00 0.00 0.00 0.00 0.00 0.00
0.00 0.00 0.00 0.00 0.00 0.00 0.01 0.01 0.03 0.02 0.01 0.00 0.00 0.00 0.00 0.00 0.00 0.00 0.00 0.00 0.00 0.00 0.00 0.00 0.00 0.00 0.00 0.00 0.00 0.00 0.00 0.00 0.00 0.00 0.00 0.00 0.00 0.00 0.00 0.00 0.00 0.00 0.00 0.00 0.00 0.00 0.00
MSLP
1021.23 1021.34 1021.48 1021.56 1021.64 1021.63 1021.70 1021.63 1021.55 1021.59 1021.61 1021.49 1021.53 1021.60 1021.65 1021.63 1021.65 1021.68 1021.58 1021.37 1021.14 1020.95 1020.70 1020.39 1020.17 1020.03 1020.09 1020.22 1021.48 1021.39 1021.11 1020.51 1019.85 1019.53 1019.28 1018.92 1018.73 1019.02 1019.46 1020.32 1020.95 1021.35 1022.83 1023.63 1024.23 1024.40 1024.60
1021.04 1021.25 1021.40 1021.49 1021.62 1021.69 1021.74 1021.66 1021.65 1021.62 1021.76 1021.64 1021.60 1021.69 1021.79 1021.75 1021.74 1021.72 1021.65 1021.43 1021.18 1020.91 1020.65 1020.34 1020.08 1019.91 1019.89 1020.88 1022.15 1021.84 1021.42 1020.51 1020.15 1019.71 1019.58 1019.29 1019.15 1019.48 1020.29 1021.22 1021.61 1022.61 1023.14 1023.93 1024.59 1024.91 1025.16
1020.84 1021.03 1021.22 1021.39 1021.54 1021.63 1021.75 1021.68 1021.71 1021.63 1021.74 1021.67 1021.67 1021.74 1021.79 1021.80 1021.74 1021.70 1021.63 1021.43 1021.19 1020.92 1020.60 1020.39 1020.18 1019.95 1020.47 1022.22 1022.19 1021.90 1021.42 1020.99 1020.70 1020.16 1019.86 1020.09 1019.91 1019.73 1020.80 1021.63 1022.63 1022.77 1022.90 1023.60 1024.21 1024.64 1024.98
1020.57 1020.80 1021.01 1021.31 1021.44 1021.58 1021.63 1021.70 1021.72 1021.70 1021.70 1021.67 1021.68 1021.78 1021.74 1021.73 1021.70 1021.65 1021.56 1021.40 1021.19 1020.95 1020.63 1020.47 1020.33 1020.05 1021.53 1022.31 1022.15 1021.88 1021.35 1020.90 1020.71 1020.47 1020.41 1020.61 1020.45 1020.68 1021.34 1022.22 1022.44 1022.28 1022.38 1022.43 1023.78 1024.34 1024.98
1020.22 1020.49 1020.76 1021.03 1021.32 1021.50 1021.57 1021.61 1021.71 1021.67 1021.68 1021.62 1021.62 1021.72 1021.69 1021.71 1021.72 1021.67 1021.52 1021.27 1021.11 1020.97 1020.75 1020.51 1020.34 1020.27 1022.03 1022.32 1022.35 1022.49 1022.34 1021.67 1021.14 1020.77 1020.72 1020.61 1020.58 1021.32 1022.11 1021.62 1021.64 1021.80 1021.46 1022.31 1023.39 1024.27 1024.50
1019.87 1020.14 1020.36 1020.71 1021.00 1021.29 1021.43 1021.55 1021.62 1021.61 1021.65 1021.62 1021.59 1021.60 1021.63 1021.70 1021.70 1021.63 1021.44 1021.25 1021.12 1020.90 1020.90 1020.64 1020.96 1021.31 1022.51 1023.13 1023.15 1022.93 1022.55 1022.19 1021.45 1021.00 1020.80 1020.69 1020.88 1021.14 1021.61 1021.47 1021.14 1021.59 1021.92 1022.74 1023.23 1024.37 1024.51
1019.34 1019.71 1020.04 1020.33 1020.72 1021.05 1021.25 1021.39 1021.50 1021.56 1021.56 1021.65 1021.57 1021.57 1021.59 1021.57 1021.57 1021.52 1021.32 1021.19 1021.51 1021.59 1022.10 1023.05 1023.34 1023.31 1023.57 1023.61 1023.43 1023.07 1023.01 1022.25 1021.67 1021.41 1021.27 1021.61 1021.32 1021.86 1022.73 1022.78 1022.72 1022.67 1022.82 1023.09 1023.65 1024.67 1024.51
1018.56 1019.24 1019.63 1019.96 1020.33 1020.73 1021.02 1021.21 1021.34 1021.46 1021.55 1021.57 1021.59 1021.60 1021.56 1021.55 1021.57 1021.52 1021.36 1021.58 1022.48 1022.65 1023.28 1023.89 1023.88 1023.99 1024.24 1024.41 1023.68 1023.27 1023.06 1022.74 1022.15 1022.02 1022.30 1022.22 1022.62 1023.90 1024.04 1023.82 1023.53 1023.46 1023.55 1023.57 1024.14 1024.69 1024.47
1017.88 1018.50 1019.10 1019.58 1019.93 1020.33 1020.79 1020.98 1021.20 1021.35 1021.46 1021.43 1021.51 1021.54 1021.59 1021.57 1021.61 1021.55 1021.83 1022.63 1022.80 1022.50 1022.57 1024.03 1024.28 1024.34 1024.63 1024.55 1024.50 1024.21 1023.87 1023.64 1023.24 1023.03 1023.03 1023.07 1024.68 1024.95 1024.80 1024.63 1024.43 1024.35 1024.46 1024.63 1024.90 1024.66 1024.68
1017.47 1017.80 1018.46 1019.00 1019.52 1019.99 1020.44 1020.75 1021.06 1021.35 1021.46 1021.39 1021.30 1021.40 1021.47 1021.54 1021.89 1022.20 1022.42 1022.91 1022.76 1022.37 1022.36 1024.10 1024.23 1024.72 1024.76 1024.53 1024.78 1024.82 1024.57 1024.42 1024.09 1024.14 1024.26 1024.67 1025.47 1025.61 1025.57 1025.72 1025.86 1025.69 1026.01 1025.82 1025.54 1024.91 1024.43
1016.87 1017.31 1017.65 1018.25 1019.00 1019.59 1020.03 1020.45 1020.72 1021.20 1021.51 1021.57 1021.36 1021.27 1021.26 1021.44 1021.77 1022.26 1022.81 1022.84 1022.71 1022.43 1022.61 1024.26 1024.25 1024.65 1024.68 1024.54 1025.08 1024.79 1024.95 1024.10 1024.34 1024.72 1025.10 1026.07 1026.26 1026.29 1026.28 1026.89 1026.87 1026.84 1026.73 1026.36 1025.95 1025.35 1025.10
1016.14 1016.79 1017.25 1017.72 1018.26 1019.11 1019.70 1020.15 1020.44 1020.85 1021.31 1021.48 1021.49 1021.42 1021.45 1021.64 1021.97 1022.85 1022.96 1022.77 1022.46 1022.40 1022.60 1023.79 1024.10 1024.34 1024.34 1024.61 1024.82 1024.77 1024.62 1024.68 1025.21 1025.09 1025.43 1026.56 1027.45 1027.55 1027.60 1027.81 1027.56 1027.35 1026.89 1026.45 1026.04 1025.42 1024.99
1015.33 1016.06 1016.66 1017.25 1017.88 1018.44 1019.24 1019.78 1020.18 1020.63 1021.10 1021.30 1021.58 1021.50 1021.68 1021.93 1022.34 1022.84 1022.97 1022.56 1022.03 1021.88 1023.08 1023.49 1023.83 1024.14 1024.35 1024.58 1024.62 1024.63 1024.63 1024.83 1025.07 1025.21 1025.56 1026.72 1027.47 1028.18 1028.47 1027.95 1027.78 1027.43 1026.59 1025.55 1025.34 1025.06 1024.79
1014.59 1015.22 1015.90 1016.58 1017.23 1017.95 1018.68 1019.29 1019.92 1020.40 1020.85 1021.14 1021.56 1021.59 1022.53 1022.67 1022.88 1022.88 1022.75 1022.21 1021.59 1021.58 1022.17 1023.05 1023.53 1023.96 1024.12 1024.76 1024.89 1024.84 1024.95 1025.03 1025.42 1025.22 1025.55 1026.23 1027.55 1028.23 1028.77 1028.57 1028.16 1027.56 1027.07 1026.33 1025.67 1025.20 1024.91
1013.81 1014.50 1015.16 1015.73 1016.45 1017.28 1018.12 1018.71 1019.52 1020.29 1020.63 1020.85 1021.33 1022.14 1022.45 1022.95 1023.12 1022.89 1022.49 1021.84 1020.93 1021.18 1021.78 1022.73 1023.51 1023.58 1024.04 1024.57 1024.83 1024.88 1025.21 1025.48 1025.87 1026.07 1026.18 1026.42 1027.62 1028.83 1029.20 1029.26 1029.17 1028.28 1027.67 1027.72 1026.91 1026.76 1026.01
1013.36 1013.82 1014.46 1015.04 1015.73 1016.52 1017.28 1018.03 1018.92 1019.81 1020.65 1020.77 1021.23 1022.03 1022.72 1023.03 1023.33 1022.58 1022.15 1021.49 1021.81 1022.14 1022.25 1022.54 1022.63 1023.16 1023.28 1024.12 1024.54 1024.67 1025.29 1026.20 1026.65 1027.03 1027.10 1027.23 1027.98 1029.07 1029.72 1030.02 1029.99 1029.47 1029.38 1028.66 1027.65 1026.80 1025.60
1012.75 1013.12 1013.54 1014.12 1014.78 1015.66 1016.46 1017.32 1018.22 1019.27 1020.24 1020.55 1021.36 1022.43 1022.91 1023.09 1023.24 1022.49 1021.62 1021.66 1022.26 1022.84 1022.75 1022.69 1022.66 1023.01 1023.29 1023.76 1024.33 1024.90 1025.62 1026.93 1027.30 1027.58 1027.66 1027.89 1028.27 1029.62 1029.92 1030.20 1029.99 1030.28 1029.83 1029.74 1029.23 1028.32 1027.05
1011.79 1012.44 1012.80 1013.30 1013.76 1014.52 1015.50 1016.58 1017.58 1018.64 1019.82 1020.76 1022.01 1023.02 1023.26 1023.35 1023.31 1022.28 1021.95 1022.02 1022.67 1023.25 1023.51 1023.31 1023.19 1023.31 1023.45 1024.14 1024.56 1025.21 1026.06 1027.21 1028.05 1028.19 1028.28 1028.75 1028.77 1029.02 1029.63 1030.90 1031.25 1030.70 1030.23 1029.89 1029.29 1029.11 1028.68
1011.38 1011.16 1011.96 1012.27 1012.95 1013.53 1014.36 1015.39 1016.67 1018.00 1018.83 1020.55 1021.83 1022.91 1023.27 1023.13 1022.76 1022.18 1022.58 1022.65 1023.05 1023.60 1023.77 1023.80 1023.90 1024.14 1024.54 1024.88 1025.76 1026.13 1027.07 1028.53 1028.75 1028.89 1028.94 1029.27 1029.37 1029.45 1030.24 1031.57 1031.50 1031.22 1030.80 1030.59 1030.42 1029.63 1027.87
1010.40 1010.49 1010.85 1011.46 1011.92 1012.62 1013.45 1014.56 1015.82 1017.04 1018.22 1019.27 1021.12 1022.35 1023.46 1023.34 1022.54 1021.57 1022.07 1022.77 1023.50 1024.01 1024.18 1024.24 1024.55 1024.89 1025.19 1026.00 1026.97 1027.54 1028.12 1029.22 1029.58 1029.48 1029.87 1029.90 1029.91 1029.48 1029.32 1029.86 1030.49 1031.13 1030.89 1030.56 1030.05 1029.11 1026.58
1009.47 1009.57 1009.92 1010.58 1011.08 1011.66 1012.46 1013.46 1015.02 1016.01 1017.07 1017.95 1019.54 1020.64 1020.91 1022.34 1022.11 1021.55 1021.66 1022.27 1023.14 1024.01 1024.58 1024.73 1025.21 1025.40 1025.68 1026.68 1027.66 1028.14 1029.04 1030.27 1030.59 1030.86 1030.95 1031.15 1030.83 1030.80 1029.99 1030.32 1030.76 1030.81 1030.52 1030.25 1029.48 1027.40 1027.24
1008.46 1008.82 1009.38 1010.00 1010.28 1010.69 1011.40 1012.37 1013.92 1015.31 1016.44 1017.35 1019.02 1019.75 1020.98 1021.21 1021.03 1021.51 1021.81 1022.23 1022.54 1023.86 1024.41 1025.04 1025.35 1025.87 1026.55 1027.10 1027.66 1028.55 1029.50 1030.50 1030.61 1031.87 1031.75 1032.35 1031.85 1031.93 1031.08 1030.69 1031.24 1031.10 1030.60 1029.86 1028.99 1028.32 1027.51
1007.87 1008.40 1009.42 1009.68 1009.93 1010.69 1011.07 1011.83 1013.38 1014.66 1015.35 1016.87 1018.46 1018.88 1018.80 1021.01 1021.52 1021.70 1021.56 1022.05 1022.50 1023.35 1025.10 1025.33 1025.76 1026.69 1028.05 1028.49 1028.91 1030.05 1030.59 1030.95 1031.24 1031.73 1032.26 1032.68 1032.48 1032.20 1030.91 1031.18 1031.18 1030.34 1028.26 1028.54 1028.21 1028.07 1027.86
1007.71 1008.28 1008.93 1009.40 1010.14 1011.00 1011.51 1012.70 1013.79 1014.47 1014.93 1015.95 1017.03 1017.73 1019.16 1021.01 1021.54 1021.36 1021.67 1022.11 1022.97 1023.76 1025.20 1026.59 1026.87 1027.82 1029.50 1029.81 1030.24 1030.70 1031.57 1032.30 1032.34 1033.08 1033.03 1033.00 1032.67 1032.37 1031.25 1031.24 1030.11 1028.07 1028.69 1029.29 1028.82 1028.57 1028.69
1008.07 1008.18 1008.70 1009.36 1009.99 1010.92 1012.16 1013.12 1013.93 1014.77 1015.36 1015.99 1016.78 1017.20 1018.51 1020.77 1021.51 1022.07 1022.31 1022.94 1023.95 1025.04 1026.56 1027.77 1028.92 1029.69 1029.69 1029.56 1029.90 1030.72 1031.67 1032.70 1033.55 1034.24 1034.10 1033.64 1032.97 1032.40 1032.15 1031.29 1028.66 1027.07 1029.60 1030.33 1030.14 1029.06 1029.21
1008.14 1008.30 1008.55 1008.96 1009.91 1010.58 1012.15 1013.16 1013.89 1014.83 1015.57 1016.21 1017.08 1017.29 1018.22 1020.22 1022.26 1022.31 1022.87 1023.52 1024.40 1025.97 1028.15 1029.52 1030.42 1030.33 1030.10 1029.17 1029.34 1029.98 1030.56 1031.54 1033.10 1034.10 1034.55 1034.10 1033.64 1032.71 1032.76 1031.79 1029.69 1028.78 1030.09 1031.38 1031.82 1031.09 1031.09
1007.97 1008.10 1008.19 1008.99 1009.95 1010.49 1011.90 1013.03 1013.81 1014.50 1015.22 1016.13 1017.62 1017.71 1018.34 1020.91 1023.56 1023.57 1023.80 1024.36 1024.78 1026.07 1027.91 1029.82 1030.53 1030.69 1030.26 1028.79 1028.95 1029.40 1030.07 1031.82 1032.32 1033.06 1033.95 1034.06 1033.73 1032.70 1032.29 1031.62 1029.47 1029.25 1031.17 1032.66 1033.57 1032.95 1033.00
1007.85 1008.10 1008.61 1009.10 1009.57 1010.02 1011.30 1012.81 1013.76 1014.35 1015.10 1015.89 1018.39 1018.47 1017.97 1021.61 1024.82 1025.17 1025.60 1025.92 1026.00 1026.30 1027.35 1029.78 1030.32 1030.32 1029.92 1029.11 1028.62 1028.70 1029.52 1030.76 1031.55 1032.04 1032.03 1031.76 1032.11 1032.15 1032.25 1032.07 1031.06 1030.49 1033.08 1033.76 1033.37 1033.76 1034.27
1007.97 1008.16 1008.38 1008.58 1008.89 1009.20 1010.76 1012.70 1013.78 1014.40 1015.09 1015.59 1017.72 1018.82 1018.93 1021.21 1026.30 1026.75 1027.48 1028.10 1027.91 1027.43 1027.52 1028.76 1027.94 1027.85 1027.93 1028.09 1028.55 1028.88 1029.35 1030.59 1030.47 1030.60 1031.66 1031.34 1030.02 1030.09 1030.15 1029.84 1030.77 1032.01 1033.06 1034.15 1034.50 1034.56 1035.15
Thickness
5642 5643 5644 5645 5645 5646 5647 5649 5651 5651 5650 5652 5652 5650 5649 5649 5649 5648 5648 5649 5650 5651 5652 5654 5655 5655 5654 5649 5638 5639 5641 5645 5649 5651 5650 5652 5652 5649 5644 5637 5634 5634 5616 5610 5606 5607 5609
5639 5639 5640 5641 5642 5643 5643 5645 5647 5648 5647 5648 5649 5648 5646 5647 5647 5647 5647 5648 5649 5650 5652 5653 5655 5655 5655 5645 5633 5634 5638 5643 5645 5647 5646 5649 5648 5645 5634 5625 5630 5617 5614 5607 5603 5603 5601
5635 5636 5636 5637 5638 5639 5640 5642 5643 5644 5644 5645 5645 5645 5644 5644 5645 5645 5646 5647 5648 5649 5651 5651 5653 5653 5647 5633 5631 5632 5635 5637 5638 5641 5642 5640 5641 5642 5630 5621 5613 5613 5617 5610 5607 5604 5603
5632 5633 5633 5633 5634 5635 5636 5637 5639 5640 5641 5642 5643 5642 5642 5642 5642 5643 5643 5645 5646 5647 5649 5649 5650 5650 5634 5629 5628 5630 5632 5635 5635 5637 5636 5633 5635 5628 5623 5615 5613 5616 5619 5629 5605 5603 5594
5628 5629 5630 5630 5630 5631 5632 5634 5635 5636 5637 5639 5640 5639 5639 5639 5639 5639 5641 5643 5644 5645 5645 5646 5647 5647 5629 5626 5625 5622 5622 5626 5628 5631 5630 5630 5629 5619 5612 5622 5622 5616 5630 5618 5609 5595 5597
5624 5625 5627 5627 5627 5627 5628 5629 5631 5632 5633 5634 5636 5636 5637 5636 5636 5637 5638 5639 5641 5641 5640 5641 5638 5638 5624 5616 5613 5614 5616 5618 5622 5624 5625 5624 5622 5621 5617 5621 5629 5617 5615 5603 5605 5591 5589
5620 5621 5622 5623 5623 5623 5624 5625 5627 5627 5629 5630 5631 5632 5633 5633 5634 5635 5636 5637 5638 5638 5626 5614 5610 5612 5610 5609 5608 5610 5607 5613 5617 5617 5615 5609 5618 5613 5599 5597 5595 5596 5596 5596 5593 5575 5581
5617 5616 5617 5618 5618 5618 5619 5620 5621 5623 5623 5625 5626 5627 5628 5629 5629 5630 5631 5631 5623 5625 5615 5604 5603 5603 5600 5596 5607 5606 5603 5609 5609 5606 5600 5608 5603 5582 5580 5583 5587 5588 5585 5590 5582 5566 5573
5613 5612 5612 5612 5613 5613 5613 5614 5615 5616 5617 5620 5621 5622 5623 5623 5624 5624 5623 5618 5615 5617 5621 5602 5596 5597 5593 5594 5590 5593 5594 5593 5595 5594 5593 5600 5575 5566 5573 5576 5580 5578 5577 5574 5569 5567 5556
5605 5607 5606 5607 5607 5607 5607 5608 5609 5609 5610 5613 5616 5617 5618 5618 5617 5614 5614 5609 5610 5612 5622 5602 5598 5590 5589 5586 5587 5580 5580 5583 5583 5583 5577 5574 5561 5562 5568 5563 5557 5573 5546 5546 5548 5563 5579
5598 5599 5602 5602 5601 5601 5601 5602 5603 5602 5603 5604 5608 5610 5612 5611 5611 5610 5605 5603 5603 5607 5613 5589 5590 5582 5580 5587 5576 5580 5571 5581 5579 5570 5569 5559 5554 5558 5563 5541 5537 5545 5532 5535 5535 5544 5539
5592 5593 5594 5595 5597 5595 5594 5595 5596 5597 5596 5597 5599 5601 5603 5603 5601 5596 5595 5596 5599 5610 5600 5589 5581 5580 5583 5575 5571 5570 5571 5567 5558 5563 5557 5540 5529 5532 5533 5523 5524 5524 5527 5525 5522 5529 5550
5589 5588 5589 5589 5590 5590 5589 5588 5589 5589 5588 5590 5590 5593 5593 5592 5597 5588 5586 5593 5604 5603 5581 5584 5581 5573 5572 5569 5569 5565 5566 5566 5568 5566 5564 5538 5528 5518 5515 5529 5522 5523 5538 5565 5562 5560 5570
5584 5584 5584 5585 5585 5583 5582 5581 5580 5581 5581 5582 5582 5584 5580 5580 5579 5579 5581 5593 5589 5589 5587 5565 5568 5563 5572 5555 5555 5555 5558 5563 5544 5553 5556 5560 5557 5518 5505 5513 5520 5519 5524 5548 5546 5557 5563
5578 5580 5580 5582 5581 5578 5576 5575 5573 5572 5573 5575 5574 5570 5571 5568 5568 5570 5580 5583 5595 5591 5581 5570 5559 5568 5563 5550 5550 5551 5548 5549 5535 5530 5552 5549 5543 5496 5493 5494 5496 5510 5526 5493 5495 5476 5502
5570 5572 5574 5576 5575 5574 5573 5571 5568 5565 5563 5565 5565 5562 5559 5559 5556 5565 5574 5579 5573 5565 5562 5564 5575 5563 5568 5556 5553 5552 5543 5524 5522 5510 5508 5514 5536 5486 5481 5480 5479 5484 5476 5503 5503 5519 5527
5562 5566 5568 5570 5572 5570 5568 5566 5564 5560 5556 5557 5553 5548 5547 5547 5547 5560 5571 5572 5559 5545 5553 5562 5563 5555 5557 5552 5546 5544 5539 5510 5505 5502 5501 5501 5511 5489 5474 5480 5492 5473 5478 5461 5462 5471 5509
5556 5560 5563 5566 5568 5568 5565 5561 5558 5555 5550 5545 5537 5534 5533 5533 5547 5548 5559 5557 5541 5535 5534 5539 5545 5546 5550 5538 5537 5536 5534 5513 5489 5494 5499 5481 5487 5509 5498 5443 5441 5454 5464 5468 5495 5482 5447
5553 5560 5558 5564 5565 5566 5564 5558 5555 5551 5548 5536 5530 5520 5520 5523 5545 5546 5530 5531 5531 5526 5527 5528 5529 5526 5518 5524 5519 5516 5506 5476 5477 5482 5485 5475 5482 5503 5486 5444 5438 5446 5439 5422 5412 5424 5465
5553 5558 5560 5560 5561 5562 5559 5554 5551 5547 5542 5535 5521 5519 5505 5508 5518 5542 5531 5526 5520 5509 5513 5514 5511 5509 5508 5503 5485 5489 5491 5469 5464 5469 5463 5460 5458 5487 5513 5490 5454 5441 5434 5430 5435 5444 5477
5553 5558 5561 5560 5560 5558 5555 5553 5547 5546 5540 5534 5525 5523 5522 5507 5517 5527 5529 5522 5513 5508 5500 5502 5499 5503 5501 5491 5483 5488 5477 5457 5451 5446 5444 5447 5460 5433 5448 5433 5426 5438 5445 5437 5426 5451 5445
5552 5555 5556 5555 5558 5555 5552 5552 5546 5541 5533 5527 5516 5515 5504 5504 5511 5515 5513 5507 5516 5494 5495 5497 5497 5495 5486 5492 5496 5484 5467 5451 5469 5432 5438 5409 5445 5401 5419 5420 5400 5391 5403 5418 5429 5428 5429
5547 5548 5545 5549 5551 5547 5546 5546 5540 5533 5531 5519 5507 5510 5520 5495 5496 5505 5509 5509 5507 5498 5476 5484 5483 5480 5470 5469 5458 5436 5430 5427 5435 5437 5426 5418 5414 5420 5458 5393 5383 5423 5424 5426 5427 5409 5407
5537 5539 5539 5541 5540 5536 5533 5527 5526 5523 5522 5519 5515 5512 5506 5493 5493 5501 5496 5497 5491 5491 5478 5460 5467 5473 5436 5429 5426 5425 5409 5402 5403 5391 5398 5403 5411 5411 5430 5394 5447 5441 5383 5386 5408 5397 5386
5523 5529 5531 5531 5531 5527 5518 5514 5514 5508 5509 5508 5503 5507 5498 5482 5484 5480 5483 5474 5467 5458 5451 5449 5431 5423 5424 5431 5445 5440 5430 5409 5379 5364 5369 5373 5400 5403 5402 5393 5433 5467 5377 5381 5379 5414 5373
5512 5518 5522 5524 5522 5520 5508 5505 5504 5498 5496 5497 5491 5492 5491 5483 5476 5476 5471 5471 5465 5452 5431 5414 5409 5411 5414 5438 5445 5445 5459 5436 5414 5369 5354 5359 5360 5387 5349 5378 5427 5414 5365 5326 5323 5388 5322
5503 5509 5515 5514 5511 5509 5501 5496 5494 5491 5489 5485 5477 5480 5483 5467 5445 5453 5469 5468 5460 5452 5434 5408 5405 5406 5401 5436 5440 5436 5441 5371 5427 5400 5362 5359 5353 5368 5367 5367 5395 5384 5334 5304 5358 5374 5293
5493 5499 5502 5504 5504 5505 5497 5487 5484 5483 5481 5479 5463 5466 5479 5450 5426 5426 5427 5446 5444 5450 5451 5403 5409 5401 5406 5423 5433 5430 5417 5391 5385 5367 5362 5372 5357 5352 5347 5345 5356 5334 5304 5344 5312 5273 5268
5481 5488 5494 5499 5500 5502 5491 5478 5473 5472 5470 5471 5462 5458 5462 5450 5413 5412 5409 5409 5412 5416 5425 5400 5422 5410 5420 5415 5399 5385 5392 5354 5385 5421 5326 5368 5384 5385 5375 5380 5313 5303 5291 5271 5264 5265 5251